This demonstration page uses our WeatherBlox Daily Observations layout. Learn more.

38.88101, -77.10428

Hourly Observations for October 26, 2016

Temp ( °F °C ) Dew Point ( °F °C ) Humidity (%) Winds ( mph kmh ) Pressure ( in mb ) Visibility ( mi km ) Precip ( " mm )
12:52 am 00:52 Mostly Clear 49 9.4 35 1.7 59 59 Calm 30.42 1030 10 16.09344 0 0
1:52 am 01:52 Clear 49 9.4 35 1.7 59 59 Calm 30.42 1030 10 16.09344 0 0
2:52 am 02:52 Clear 44 6.7 36 2.2 73 73 N 10 17 30.42 1030 10 16.09344 0 0
3:52 am 03:52 Mostly Clear 46 7.8 35 1.7 66 66 N 3 6 30.42 1030 10 16.09344 0 0
4:52 am 04:52 Mostly Clear 42 5.6 35 1.7 76 76 WSW 6 9 30.42 1030 10 16.09344 0 0
5:52 am 05:52 Clear 44 6.7 34 1.1 68 68 Calm 30.42 1030 10 16.09344 0 0
6:52 am 06:52 Mostly Clear 43 6.1 35 1.7 74 74 Calm 30.45 1031 10 16.09344 0 0
7:52 am 07:52 Mostly Cloudy 45 7.2 35 1.7 68 68 Calm 30.48 1032 10 16.09344 0 0
8:52 am 08:52 Mostly Cloudy 48 8.9 37 2.8 66 66 N 6 9 30.48 1032 10 16.09344 0 0
9:52 am 09:52 Mostly Cloudy 49 9.4 33 0.6 55 55 ENE 9 15 30.5 1033 10 16.09344 0 0
10:52 am 10:52 Cloudy 52 11.1 35 1.7 53 53 NE 6 9 30.48 1032 10 16.09344 0 0
11:52 am 11:52 Cloudy 53 11.7 32 0 45 45 ENE 3 6 30.48 1032 10 16.09344 0 0
12:52 pm 12:52 Cloudy 55 12.8 32 0 42 42 Calm 30.45 1031 10 16.09344 0 0
1:52 pm 13:52 Mostly Cloudy 57 13.9 34 1.1 42 42 N 5 7 30.42 1030 10 16.09344 0 0
2:52 pm 14:52 Mostly Cloudy 57 13.9 35 1.7 44 44 S 3 6 30.39 1029 10 16.09344 0 0
3:52 pm 15:52 Mostly Cloudy 57 13.9 34 1.1 42 42 SSE 5 7 30.39 1029 10 16.09344 0 0
4:52 pm 16:52 Mostly Cloudy 57 13.9 35 1.7 44 44 SSE 5 7 30.36 1028 10 16.09344 0 0
5:52 pm 17:52 Mostly Cloudy 56 13.3 37 2.8 49 49 S 7 11 30.36 1028 10 16.09344 0 0
6:52 pm 18:52 Partly Cloudy 55 12.8 40 4.4 57 57 ESE 10 17 30.39 1029 10 16.09344 0 0
7:52 pm 19:52 Partly Cloudy 53 11.7 40 4.4 61 61 ESE 9 15 30.39 1029 10 16.09344 0 0
8:52 pm 20:52 Mostly Cloudy 52 11.1 41 5 66 66 S 3 6 30.42 1030 10 16.09344 0 0
9:52 pm 21:52 Mostly Cloudy 53 11.7 41 5 64 64 SE 6 9 30.39 1029 10 16.09344 0 0
10:52 pm 22:52 Mostly Cloudy 52 11.1 42 5.6 69 69 SSE 6 9 30.39 1029 10 16.09344 0 0
11:52 pm 23:52 Mostly Cloudy 51 10.6 42 5.6 71 71 ESE 5 7 30.39 1029 10 16.09344 0 0

Powered by AerisWeather